Change the Weather History Date:

Tuesday, September 13, 2011

  Actual Average Record
Temperature  
Mean Temperature 66 °F 67 °F  
Max Temperature 73 °F 79 °F 101 °F (1931)
Min Temperature 59 °F 55 °F 35 °F (1974)
Degree Days  
Heating Degree Days 0 2  
Month to date heating degree days 6 18  
Since 1 July heating degree days 6 26  
Cooling Degree Days 1 4  
Month to date cooling degree days 79 73  
Year to date cooling degree days 1327 1053  
Growing Degree Days 16 (Base 50)    
Moisture  
Dew Point 52 °F    
Average Humidity 61    
Maximum Humidity 78    
Minimum Humidity 44    
Precipitation  
Precipitation 0.00 in 0.09 in 1.80 in (1905)
Month to date precipitation 0.52 1.27  
Year to date precipitation 24.82 24.38  
Snow  
Snow 0.00 in 0.00 in - ()
Month to date snowfall 0.0 0.0  
Since 1 July snowfall 0.0 0.0  
Snow Depth 0.00 in    
Sea Level Pressure  
Sea Level Pressure 30.04 in    
Wind  
Wind Speed 9 mph (North)    
Max Wind Speed 18 mph    
Max Gust Speed 22 mph    
Visibility 10 miles    
Events      
T = Trace of Precipitation, MM = Missing Value Source: NWS Daily Summary

Daily Weather History Graph

Daily Weather History Graph

Search for Another Location

Airport or City:

Trip Planner

Search our weather history database for the weather conditions in past years. The results will help you decide how hot, cold, wet, or windy it might be!

Date:

Astronomy

Sep. 13, 2011 Rise Set
Actual Time 7:01 AM CDT 7:36 PM CDT
Civil Twilight 6:33 AM CDT 8:04 PM CDT
Nautical Twilight 6:01 AM CDT 8:37 PM CDT
Astronomical Twilight 5:27 AM CDT 9:10 PM CDT
Moon 7:51 PM CDT (9/13) 8:18 AM CDT (9/13)
Length of Visible Light 13h 30m
Length of Day
12h 34m
Full, 98% of the Moon is Illuminated
Sep 13
Full
Sep 20
Last Quarter
Sep 27
New
Oct 3
First Quarter
Oct 11
Full

Hourly Weather History & Observations

Time (CDT) Temp. Dew Point Humidity Pressure Visibility Wind Dir Wind Speed Gust Speed Precip Events Conditions
12:52 AM 72.0 °F 61.0 °F 68% 29.93 in 10.0 mi North 15.0 mph - N/A   Clear
1:52 AM 69.8 °F 59.0 °F 68% 29.97 in 10.0 mi North 15.0 mph - N/A   Clear
2:52 AM 66.9 °F 57.0 °F 70% 29.96 in 10.0 mi North 13.8 mph - N/A   Clear
3:52 AM 64.0 °F 55.0 °F 73% 29.98 in 10.0 mi North 12.7 mph - N/A   Clear
4:52 AM 63.0 °F 54.0 °F 72% 29.99 in 10.0 mi North 12.7 mph - N/A   Clear
5:52 AM 61.0 °F 53.1 °F 75% 30.02 in 10.0 mi North 12.7 mph - N/A   Partly Cloudy
6:52 AM 60.1 °F 52.0 °F 75% 30.03 in 10.0 mi North 13.8 mph - N/A   Partly Cloudy
7:52 AM 59.0 °F 48.9 °F 69% 30.05 in 10.0 mi North 9.2 mph - N/A   Partly Cloudy
8:52 AM 61.0 °F 48.9 °F 64% 30.07 in 10.0 mi North 12.7 mph - N/A   Partly Cloudy
9:52 AM 64.0 °F 48.9 °F 58% 30.08 in 10.0 mi North 10.4 mph - N/A   Scattered Clouds
10:52 AM 64.9 °F 50.0 °F 58% 30.09 in 10.0 mi North 9.2 mph - N/A   Scattered Clouds
11:52 AM 66.0 °F 48.9 °F 54% 30.09 in 10.0 mi NNW 10.4 mph - N/A   Scattered Clouds
12:52 PM 68.0 °F 50.0 °F 52% 30.08 in 10.0 mi North 11.5 mph - N/A   Scattered Clouds
1:52 PM 68.0 °F 50.0 °F 52% 30.07 in 10.0 mi Variable 4.6 mph - N/A   Mostly Cloudy
2:52 PM 68.0 °F 51.1 °F 55% 30.06 in 10.0 mi NW 9.2 mph - N/A   Mostly Cloudy
3:52 PM 72.0 °F 48.9 °F 44% 30.05 in 10.0 mi NNW 9.2 mph - N/A   Scattered Clouds
4:52 PM 71.1 °F 48.9 °F 45% 30.04 in 10.0 mi NNW 8.1 mph - N/A   Mostly Cloudy
5:52 PM 72.0 °F 50.0 °F 46% 30.04 in 10.0 mi NW 10.4 mph - N/A   Mostly Cloudy
6:52 PM 70.0 °F 48.9 °F 47% 30.03 in 10.0 mi NNE 9.2 mph - N/A   Mostly Cloudy
7:52 PM 68.0 °F 50.0 °F 52% 30.04 in 10.0 mi NNE 5.8 mph - N/A   Scattered Clouds
8:52 PM 66.0 °F 50.0 °F 56% 30.05 in 10.0 mi North 5.8 mph - N/A   Mostly Cloudy
9:52 PM 64.9 °F 50.0 °F 58% 30.07 in 10.0 mi North 5.8 mph - N/A   Mostly Cloudy
10:52 PM 62.1 °F 52.0 °F 70% 30.08 in 10.0 mi NNW 4.6 mph - N/A   Overcast
11:52 PM 63.0 °F 50.0 °F 63% 30.08 in 10.0 mi NNE 5.8 mph - N/A   Overcast